Location: Carlton Hills
(32.8528°N, 116.9948°W)
Time: 05:04:30
(UTC+00:00)

Daily predictions for brighter satellites

Satellite Brightness Start Highest point End
(mag) Time Altitude Azimuth Time Altitude Azimuth Time Altitude Azimuth
BREEZE-M R/B 3.3 00:53:04 10° NW 00:56:45 85° NE 01:06:22 10° SE
Cosmos 1939 Rocket 3.0 01:00:24 10° SSE 01:04:26 56° ENE 01:08:28 10° N
Nadezhda 4 Rocket 4.1 00:58:49 10° N 01:05:10 87° E 01:11:30 10° S
Cosmos 1812 3.9 01:03:22 10° SE 01:06:23 22° E 01:09:25 10° NE
USA 276 3.6 01:08:36 10° NNW 01:10:56 19° NNE 01:13:17 10° E
CZ-4C R/B 4.2 01:08:49 10° N 01:13:59 19° NE 01:19:35 10° E
H-2A R/B 2.7 01:09:32 10° SE 01:14:08 32° ENE 01:18:38 10° N
CZ-3B Rocket 4.5 01:13:44 10° SW 01:17:34 24° SSE 01:27:37 10° ESE
COSMO-SKYMED 1 3.4 01:14:06 10° NE 01:17:59 31° E 01:21:50 10° SSE
Cosmos 1092 Rocket 4.0 01:14:04 10° N 01:20:22 65° E 01:26:37 10° SSE
FengYun 1-2 T 4.4 01:15:36 10° SSE 01:21:13 83° WSW 01:26:48 10° NNW
Cosmos 1656 4.0 01:17:05 10° NNW 01:22:39 74° WSW 01:28:15 10° SSE
Cosmos 1633 Rocket 4.3 01:24:43 10° NNE 01:27:58 20° ENE 01:31:13 10° SE
Cosmos 1602 3.6 01:25:41 10° N 01:29:32 70° E 01:33:23 10° SSE
Cosmos 841 Rocket 3.6 01:24:39 10° SSW 01:29:49 79° WNW 01:34:59 10° NNE
Cosmos 1782 2.8 01:25:55 10° S 01:29:55 86° W 01:33:55 10° N
Aurora 2 Rocket 4.3 01:28:18 10° WSW 01:32:39 35° S 01:38:39 10° ESE
Okean O Rocket 2.6 01:29:53 10° SE 01:33:29 25° ENE 01:37:06 10° NNE
Cosmos 1697 Rocket 2.6 01:30:00 10° NNW 01:35:35 66° ENE 01:41:09 10° SSE
Cosmos 1151 Rocket 3.1 01:32:01 10° S 01:36:11 52° E 01:40:24 10° NNE
Cosmos 1980 Rocket 2.8 01:34:28 10° N 01:39:34 34° ENE 01:44:36 10° SE
Cosmos 2369 4.0 01:34:30 10° N 01:39:59 45° ENE 01:45:24 10° SE
NOAA 6 4.5 01:35:24 10° S 01:40:30 66° WSW 01:45:37 10° NNW
Cosmos 1937 Rocket 3.5 01:35:20 10° N 01:40:37 63° ENE 01:45:51 10° SSE
Cosmos 2279 Rocket 4.0 01:34:38 10° S 01:40:45 63° E 01:46:52 10° NNE
Cosmos 1627 Rocket 4.4 01:35:08 10° N 01:41:18 82° E 01:47:24 10° S
CZ-2D R/B 3.1 01:40:09 10° SSE 01:43:58 77° ENE 01:47:48 10° N
Cosmos 2082 Rocket 2.6 01:40:44 10° SSW 01:46:22 66° WNW 01:52:02 10° NNE
Cosmos 1328 Rocket 3.6 01:47:14 10° S 01:51:34 55° E 01:55:55 10° NNE
CZ-2C R/B 1.9 01:47:43 10° SW 01:51:46 44° SSE 01:53:47 24° E
Cosmos 1666 Rocket 3.7 01:48:59 10° N 01:53:18 50° E 01:57:32 10° SSE
Cosmos 372 Rocket 4.1 01:48:43 10° N 01:53:49 51° ENE 01:58:54 10° SSE
Meteor 2-21 4.5 01:51:24 10° N 01:57:29 83° W 02:03:30 10° S
Meteor 1-27 Rocket 4.5 01:56:27 10° SE 02:01:01 27° E 02:01:40 26° ENE
Cosmos 1500 3.4 01:58:30 10° NNW 02:02:13 67° W 02:05:53 10° S
Cosmos 2278 4.1 01:58:59 10° N 02:04:18 39° ENE 02:09:34 10° SE
SKYMED 2 4.0 02:01:46 10° N 02:06:04 64° WNW 02:10:20 10° SSW
ARGOS 3.1 02:01:38 10° SSE 02:06:58 63° ENE 02:12:19 10° N
Landsat 5 3.3 02:03:12 11° NNE 02:07:05 89° ESE 02:11:01 10° SSW
SL-08 RB Rocket 4.0 02:05:43 10° SE 02:10:07 44° ENE 02:14:31 10° N
COSMOS 2455 4.4 02:07:40 10° WSW 02:12:58 32° WNW 02:18:18 10° N
ATLAS 5 CENTAUR R/B 3.8 02:07:58 10° SW 02:13:15 15° S 02:16:19 10° SSE
Meteor 2-6 Rocket 4.3 02:11:19 10° S 02:17:09 82° W 02:22:51 10° N
Meteor 2-15 4.3 02:11:53 10° S 02:17:59 79° E 02:24:06 10° N
GPS 2-04 Rocket1 2.6 02:16:33 10° WNW 02:20:40 68° N 02:21:03 62° NE
DEBRIS 2.5 02:20:20 10° WSW 02:22:31 63° NW 02:22:37 62° NNW
USA 229 DEB 4.4 02:15:34 10° NW 02:23:03 64° WSW 02:30:50 10° SSE
USA 229 4.4 02:15:40 10° NW 02:23:09 65° WSW 02:30:56 10° SSE
DMSP B5D2-2 4.0 02:21:26 30° NNE 02:23:58 62° E 02:29:08 10° S
H-2A R/B 3.6 02:26:39 23° SSE 02:26:39 23° SSE 02:28:43 10° SSE
CZ-4B R/B 3.5 02:20:23 10° S 02:25:49 68° WSW 02:31:11 10° NNW
CZ-4C R/B 3.3 02:25:26 48° NNW 02:26:03 60° WNW 02:29:21 10° SSW
Cosmos 1655 Rocket 4.0 02:19:51 10° N 02:26:07 56° E 02:32:17 10° SSE
deb Chang Zheng 4 4.1 02:24:07 10° S 02:28:20 59° WSW 02:32:36 10° NNW
USA 234 3.3 02:23:47 10° SE 02:30:20 82° SW 02:36:54 10° NW
Cosmos 1666 3.4 02:28:10 10° NNW 02:31:47 52° W 02:35:22 10° S
Cosmos 1515 Rocket 3.5 02:28:30 10° S 02:32:57 89° E 02:34:03 51° N
NOSS 3-3 (A) 4.3 02:29:30 10° S 02:33:55 38° SE 02:33:55 38° SE
NOSS 3-3 (C) 4.3 02:29:37 10° S 02:33:59 38° SE 02:33:59 38° SE
CZ-2C R/B 4.0 02:30:34 10° N 02:35:15 36° WNW 02:39:55 10° SW
Meteor 1-10 Rocket 4.4 02:30:44 10° SSW 02:36:34 77° W 02:41:51 12° N
X-37B 2.8 02:36:33 10° WSW 02:37:48 23° WSW 02:37:48 23° WSW
BREEZE-M DEB (TANK) 4.5 02:37:47 10° S 02:38:26 13° S 02:38:26 13° S
Cosmos 836 Rocket 4.3 02:41:41 10° SSW 02:46:58 83° ESE 02:47:13 79° ENE
USA 276 4.4 02:44:10 10° WNW 02:45:51 24° W 02:45:51 24° W
Feng Yun 1-1 Rocket 4.3 02:42:24 10° SSE 02:48:19 87° WSW 02:54:15 10° NNW
Cosmos 1867 3.6 02:46:29 10° SSW 02:51:23 68° SSE 02:51:23 68° SSE
H-2A R/B 4.3 02:49:20 10° SSW 02:53:30 24° W 02:57:36 10° NW
APEX 4.4 02:50:13 10° SW 02:54:07 42° W 02:54:07 42° W
CZ-4C R/B 3.0 02:55:42 10° NNW 03:03:30 82° ENE 03:07:12 39° SE
USA 32 4.4 03:00:35 10° SSW 03:05:43 60° W 03:06:21 56° NW
Okean O Rocket 3.9 03:06:09 10° SSW 03:09:42 23° W 03:13:16 10° NW
Cosmos 1980 Rocket 4.1 03:18:43 10° NW 03:23:20 26° WSW 03:27:54 10° SSW
CZ-2C R/B 4.2 03:27:08 10° W 03:27:57 15° W 03:27:57 15° W
ATLAS 3B CENTAUR R/B 4.2 03:44:33 10° W 04:03:28 73° S 04:04:12 71° SSE
Cosmos 2369 Rocket 3.2 11:47:55 43° E 11:47:55 43° E 11:52:44 10° NE
